"Pseudo-MPEC" for P22buVI

Created 2025 Jul 7 20:35:09 UT using Find_Orb

Click here for an explanation of pseudo-MPECs

 
 Astrometry: 
     P22buVI* C2025 07 02.55871900 43 31.023+23 33 32.11   ~72KZ 22.65wXNEOCPF52
     P22buVI  C2025 07 02.56948600 43 31.220+23 33 37.08   ~72KZ 22.90wXNEOCPF52
     P22buVI  C2025 07 02.58025700 43 31.397+23 33 41.76   ~72KZ 22.96wXNEOCPF52
     P22buVI 2C2025 07 05.57957500 44 23.503+23 55 22.70   ~76LK 22.4 GWNEOCPT12
     P22buVI 2C2025 07 05.58526300 44 23.592+23 55 25.14   ~76LK 22.6 GWNEOCPT12

Station data:
(F52) Pan-STARRS 2, Haleakala  (N20.707382 W156.255910)  US/Hawaii.
   Observers J. Bulger, T. Dukes, T. Lowe, A. Schultz, M. Willman. Measurers
   K. Chambers, S. Chastel, T. de Boer, L. Denneau, J. Fairlamb, H.
   Flewelling, M. Huber, C.-C. Lin, E. Magnier, Y. Ramanjooloo, R. Wainscoat,
   R. Weryk. 1.8-m Ritchey-Chrétien + CCD.
(T12) Mauna Kea-UH/Tholen NEO Follow-Up (2.24-m)  (N19.822991 W155.469434)
   US/Hawaii.  Observer Y. Ramanjooloo. 2.24-m f/10.1 University of Hawaii
   reflector.

Orbital elements:  P22buVI
   Perihelion 2024 Nov 4.22098 +/- 396 TT =  5:18:12 (JD 2460618.72098)
Epoch 2025 Jul  5.0 TT = JDT 2460861.5   Earth MOID: 0.1676   Ju: 0.6110
M   2.54265327 +/- 80               Sa: 0.2304   Ur: 0.9434      AutoNEOCP
n   0.01047311 +/-                  Peri.  328.84295 +/- 70
a  20.6895982 +/-                   Node   281.64542 +/- 60
e   0.9449707 +/- 0.192             Incl.   17.58318 +/- 38
P  94.10833                H 16.55  G  0.15   U 11.2  SR
q 1.13853276 +/- 1.62    Q 40.2406637 +/- 33              (J2000 ecliptic)
From 5 observations 2025 July 2-5; mean residual 0".07
Residuals in arcseconds: 
250702 F52  .07+  .07-    250702 F52  .16-  .03-    250705 T12  .03+  .00     
250702 F52  .09+  .10+    250705 T12  .03-  .00     

Ephemerides (geocentric):
Date (UTC) HH   RA             Dec           delta  r     elong  mag " sig PA
---- --------  ------------   ------------  ------ ------ -----  --- --------
2025 07 07 21  00 44 56.713   +24 11 24.73  3.3386 3.4184  85.8 22.7 36.1 108
2025 07 07 22  00 44 57.265   +24 11 41.92  3.3384 3.4188  85.9 22.7 37.1 108
2025 07 07 23  00 44 57.814   +24 11 59.10  3.3383 3.4193  85.9 22.7 38.0 108
2025 07 08 00  00 44 58.362   +24 12 16.26  3.3381 3.4197  85.9 22.7 39.0 108
2025 07 08 01  00 44 58.908   +24 12 33.42  3.3379 3.4201  86.0 22.7 40.0 108
2025 07 08 02  00 44 59.452   +24 12 50.57  3.3377 3.4205  86.0 22.7 41.0 108
2025 07 08 03  00 44 59.994   +24 13 07.71  3.3376 3.4209  86.0 22.7 41.9 108
2025 07 08 04  00 45 00.534   +24 13 24.84  3.3374 3.4214  86.1 22.7 43.0 108
2025 07 08 05  00 45 01.072   +24 13 41.96  3.3372 3.4218  86.1 22.7 44.0 108
2025 07 08 06  00 45 01.608   +24 13 59.07  3.3370 3.4222  86.1 22.7 45.0 108
2025 07 08 07  00 45 02.143   +24 14 16.17  3.3369 3.4226  86.2 22.7 46.0 108
2025 07 08 08  00 45 02.675   +24 14 33.26  3.3367 3.4231  86.2 22.7 47.1 108
2025 07 08 09  00 45 03.206   +24 14 50.34  3.3365 3.4235  86.2 22.7 48.1 108
2025 07 08 10  00 45 03.735   +24 15 07.41  3.3364 3.4239  86.3 22.7 49.2 108
2025 07 08 11  00 45 04.261   +24 15 24.47  3.3362 3.4243  86.3 22.7 50.3 108
2025 07 08 12  00 45 04.786   +24 15 41.52  3.3360 3.4247  86.3 22.7 51.4 108
2025 07 08 13  00 45 05.309   +24 15 58.56  3.3358 3.4252  86.4 22.7 52.5 108
2025 07 08 14  00 45 05.830   +24 16 15.59  3.3357 3.4256  86.4 22.7 53.6 108
2025 07 08 15  00 45 06.349   +24 16 32.61  3.3355 3.4260  86.4 22.8 54.7 108
2025 07 08 16  00 45 06.867   +24 16 49.62  3.3353 3.4264  86.5 22.8 55.8 108
2025 07 08 17  00 45 07.382   +24 17 06.62  3.3351 3.4269  86.5 22.8 57.0 108
2025 07 08 18  00 45 07.895   +24 17 23.61  3.3350 3.4273  86.5 22.8 58.1 108
2025 07 08 19  00 45 08.407   +24 17 40.59  3.3348 3.4277  86.6 22.8 59.3 108
2025 07 08 20  00 45 08.917   +24 17 57.56  3.3346 3.4281  86.6 22.8 60.5 108
2025 07 08 21  00 45 09.424   +24 18 14.52  3.3344 3.4285  86.6 22.8 61.7 108
2025 07 08 22  00 45 09.930   +24 18 31.47  3.3343 3.4290  86.7 22.8 62.9 108
2025 07 08 23  00 45 10.434   +24 18 48.41  3.3341 3.4294  86.7 22.8 64.1 108
2025 07 09 00  00 45 10.936   +24 19 05.34  3.3339 3.4298  86.7 22.8 65.3 108
2025 07 09 01  00 45 11.436   +24 19 22.26  3.3337 3.4302  86.8 22.8 66.5 108
2025 07 09 02  00 45 11.934   +24 19 39.17  3.3336 3.4307  86.8 22.8 67.8 108
2025 07 09 03  00 45 12.430   +24 19 56.07  3.3334 3.4311  86.8 22.8 69.0 108
2025 07 09 04  00 45 12.925   +24 20 12.96  3.3332 3.4315  86.9 22.8 70.3 108
2025 07 09 05  00 45 13.417   +24 20 29.84  3.3330 3.4319  86.9 22.8 71.6 108
2025 07 09 06  00 45 13.908   +24 20 46.71  3.3329 3.4323  87.0 22.8 72.9 108
2025 07 09 07  00 45 14.396   +24 21 03.57  3.3327 3.4328  87.0 22.8 74.2 108
2025 07 09 08  00 45 14.883   +24 21 20.42  3.3325 3.4332  87.0 22.8 75.5 108
2025 07 09 09  00 45 15.367   +24 21 37.26  3.3323 3.4336  87.1 22.8 76.8 108
2025 07 09 10  00 45 15.850   +24 21 54.08  3.3322 3.4340  87.1 22.8 78.1 108
2025 07 09 11  00 45 16.331   +24 22 10.90  3.3320 3.4345  87.1 22.8 79.5 108
2025 07 09 12  00 45 16.810   +24 22 27.71  3.3318 3.4349  87.2 22.8 80.8 108
2025 07 09 13  00 45 17.287   +24 22 44.51  3.3316 3.4353  87.2 22.8 82.2 108
2025 07 09 14  00 45 17.762   +24 23 01.30  3.3315 3.4357  87.2 22.8 83.6 108
2025 07 09 15  00 45 18.236   +24 23 18.08  3.3313 3.4361  87.3 22.8 85.0 108
2025 07 09 16  00 45 18.707   +24 23 34.85  3.3311 3.4366  87.3 22.8 86.3 108
2025 07 09 17  00 45 19.176   +24 23 51.61  3.3309 3.4370  87.3 22.8 87.8 108
2025 07 09 18  00 45 19.644   +24 24 08.36  3.3308 3.4374  87.4 22.8 89.2 107
2025 07 09 19  00 45 20.109   +24 24 25.09  3.3306 3.4378  87.4 22.8 90.6 107
2025 07 09 20  00 45 20.573   +24 24 41.82  3.3304 3.4382  87.4 22.8 92.1 107